Change the Weather History Date:

Wednesday, October 10, 2012

  Actual Average Record
Temperature  
Mean Temperature 51 °F 51 °F  
Max Temperature 62 °F 65 °F 84 °F (1962)
Min Temperature 39 °F 38 °F 17 °F (1946)
Degree Days  
Heating Degree Days 14 14  
Month to date heating degree days 163 121  
Since 1 July heating degree days 279 311  
Cooling Degree Days 0 0  
Month to date cooling degree days 0 0  
Year to date cooling degree days 873 454  
Moisture  
Dew Point 33 °F    
Average Humidity 56    
Maximum Humidity 79    
Minimum Humidity 32    
Precipitation  
Precipitation 0.00 in 0.03 in 0.42 in (1969)
Month to date precipitation 0.02 0.28  
Year to date precipitation 7.71 15.26  
Snow  
Snow 0.00 in 0.00 in 0.80 in (1969)
Month to date snowfall T 0.5  
Since 1 July snowfall T 0.7  
Since 1 September snowfall T 0.7  
Snow Depth 0.00 in    
Sea Level Pressure  
Sea Level Pressure 30.11 in    
Wind  
Wind Speed 6 mph (SSE)    
Max Wind Speed 14 mph    
Max Gust Speed 18 mph    
Visibility 10 miles    
Events      
T = Trace of Precipitation, MM = Missing Value Source: NWS Daily Summary

Daily Weather History Graph

Daily Weather History Graph

Search for Another Location

Airport or City:

Trip Planner

Search our weather history database for the weather conditions in past years. The results will help you decide how hot, cold, wet, or windy it might be!

Date:

Astronomy

Oct. 10, 2012 Rise Set
Actual Time 7:03 AM MDT 6:26 PM MDT
Civil Twilight 6:37 AM MDT 6:53 PM MDT
Nautical Twilight 6:06 AM MDT 7:24 PM MDT
Astronomical Twilight 5:35 AM MDT 7:55 PM MDT
Moon 1:45 AM MDT (10/10) 3:28 PM MDT (10/10)
Length of Visible Light 12h 16m
Length of Day
11h 23m
Waning Crescent, 26% of the Moon is Illuminated
Oct 10
Waning Crescent
Oct 15
New
Oct 21
First Quarter
Oct 29
Full
Nov 6
Last Quarter

Hourly Weather History & Observations

Time (MDT) Temp. Windchill Dew Point Humidity Pressure Visibility Wind Dir Wind Speed Gust Speed Precip Events Conditions
12:54 AM 39.9 °F 32.5 °F 33.1 °F 77% 30.14 in 10.0 mi South 12.7 mph - N/A   Overcast
1:54 AM 39.0 °F 32.8 °F 33.1 °F 79% 30.16 in 10.0 mi SSE 9.2 mph - N/A   Overcast
2:21 AM 39.2 °F 33.0 °F 33.8 °F 81% 30.24 in 10.0 mi South 9.2 mph - N/A   Overcast
2:54 AM 39.9 °F 32.9 °F 33.1 °F 77% 30.16 in 10.0 mi South 11.5 mph - N/A   Overcast
3:54 AM 39.9 °F 35.1 °F 33.1 °F 77% 30.14 in 10.0 mi South 6.9 mph - N/A   Overcast
4:52 AM 39.2 °F 33.0 °F 33.8 °F 81% 30.21 in 10.0 mi South 9.2 mph - N/A   Overcast
4:54 AM 39.9 °F 33.9 °F 33.1 °F 77% 30.17 in 10.0 mi SSW 9.2 mph - N/A   Overcast
5:54 AM 39.0 °F 34.0 °F 33.1 °F 79% 30.20 in 10.0 mi South 6.9 mph - N/A   Overcast
6:54 AM 39.0 °F 35.7 °F 33.1 °F 79% 30.22 in 10.0 mi SW 4.6 mph - N/A   Overcast
7:54 AM 39.0 °F 35.7 °F 33.1 °F 79% 30.22 in 10.0 mi SSE 4.6 mph - N/A   Mostly Cloudy
8:54 AM 39.9 °F 36.7 °F 34.0 °F 79% 30.22 in 10.0 mi South 4.6 mph - N/A   Overcast
9:54 AM 44.1 °F - 34.0 °F 68% 30.20 in 10.0 mi Calm Calm - N/A   Scattered Clouds
10:54 AM 48.0 °F - 35.1 °F 61% 30.17 in 10.0 mi SSE 5.8 mph - N/A   Clear
11:54 AM 50.0 °F - 34.0 °F 54% 30.13 in 10.0 mi South 5.8 mph - N/A   Clear
12:54 PM 52.0 °F - 34.0 °F 50% 30.10 in 10.0 mi Calm Calm - N/A   Partly Cloudy
1:54 PM 57.0 °F - 34.0 °F 42% 30.04 in 10.0 mi South 8.1 mph - N/A   Partly Cloudy
2:54 PM 61.0 °F - 34.0 °F 36% 29.98 in 10.0 mi South 10.4 mph - N/A   Partly Cloudy
3:54 PM 61.0 °F - 34.0 °F 36% 29.97 in 10.0 mi South 10.4 mph - N/A   Partly Cloudy
4:54 PM 62.1 °F - 32.0 °F 32% 29.96 in 10.0 mi SE 10.4 mph - N/A   Partly Cloudy
5:54 PM 59.0 °F - 32.0 °F 36% 29.98 in 10.0 mi East 5.8 mph - N/A   Partly Cloudy
6:54 PM 55.9 °F - 32.0 °F 40% 30.01 in 10.0 mi East 3.5 mph - N/A   Scattered Clouds
7:54 PM 52.0 °F - 32.0 °F 47% 30.04 in 10.0 mi Calm Calm - N/A   Partly Cloudy
8:54 PM 46.9 °F - 32.0 °F 56% 30.05 in 10.0 mi NNE 4.6 mph - N/A   Partly Cloudy
9:54 PM 46.0 °F 42.5 °F 32.0 °F 58% 30.05 in 10.0 mi North 6.9 mph - N/A   Clear
10:54 PM 46.9 °F - 33.1 °F 59% 30.01 in 10.0 mi North 6.9 mph - N/A   Clear
11:54 PM 46.9 °F - 32.0 °F 56% 29.99 in 10.0 mi North 6.9 mph - N/A   Clear